User: anonymous   Login
Location: Berduj
(43.0019°N, 22.3781°E)
Time: 13:51:20
(UTC+00:00)
Language:

Cosmos 1076 Rocket - Orbit

View from above orbital plane
View from above orbital plane
View from above satellite
View from above satellite

Ground track
Ground track

The orbit data is extracted from the following two-line orbital elements,

1 11267U 79011B   19341.87659592 +.00000063 +00000-0 +39603-5 0  9999
2 11267 082.5254 096.2338 0018405 103.2631 257.0641 14.88952767188739
Epoch (UTC): 07 December 2019 21:02:17
Eccentricity: 0.0018405
inclination: 82.5254°
perigee height: 588 km
apogee height: 614 km
right ascension of ascending node: 96.2338°
argument of perigee: 103.2631°
revolutions per day: 14.88952767
mean anomaly at epoch: 257.0641°
orbit number at epoch: 18873

The dashed part of the orbit path shows where the satellite is in the earth's shadow,  

DLR